Weather History for Provo, UT

Change the Weather History Date:

Wednesday, March 21, 2012

  Actual Average Record
Temperature  
Mean Temperature 47 °F -  
Max Temperature 57 °F 54 °F 73 °F (2004)
Min Temperature 37 °F 32 °F 26 °F (1987)
Degree Days  
Heating Degree Days 18    
Moisture  
Dew Point 30 °F    
Average Humidity 60    
Maximum Humidity 93    
Minimum Humidity 31    
Precipitation  
Precipitation 0.00 in - - ()
Sea Level Pressure  
Sea Level Pressure 30.15 in    
Wind  
Wind Speed 5 mph (South)    
Max Wind Speed 9 mph    
Max Gust Speed -    
Visibility 12 miles    
Events      
Averages and records for this station are not official NWS values.
T = Trace of Precipitation, MM = Missing Value Source: NWS Daily Summary

Daily Weather History Graph

Daily Weather History Graph

Search for Another Location

Airport:

Trip Planner

Search our weather history database for the weather conditions in past years. The results will help you decide how hot, cold, wet, or windy it might be!

Date:

Astronomy

Mar. 21, 2012 Rise Set
Actual Time 7:27 AM MDT 7:40 PM MDT
Civil Twilight 7:00 AM MDT 8:07 PM MDT
Nautical Twilight 6:28 AM MDT 8:39 PM MDT
Astronomical Twilight 5:56 AM MDT 9:12 PM MDT
Moon 6:40 AM MDT (3/21) 7:11 PM MDT (3/21)
Length of Visible Light 13h 07m
Length of Day
12h 12m
Waning Crescent, 1% of the Moon is Illuminated
Mar 21
Waning Crescent
Mar 22
New
Mar 30
First Quarter
Apr 6
Full
Apr 13
Last Quarter

Hourly Weather History & Observations

Time (MDT) Temp. Windchill Dew Point Humidity Pressure Visibility Wind Dir Wind Speed Gust Speed Precip Events Conditions
12:15 AM 41.0 °F 37.1 °F 28.4 °F 61% 30.19 in 10.0 mi SSE 5.8 mph - N/A   Mostly Cloudy
12:35 AM 41.0 °F 36.4 °F 28.4 °F 61% 30.19 in 10.0 mi SSE 6.9 mph - N/A   Mostly Cloudy
12:55 AM 41.0 °F 35.2 °F 26.6 °F 57% 30.19 in 10.0 mi SSE 9.2 mph - N/A   Overcast
1:35 AM 39.2 °F 35.9 °F 28.4 °F 65% 30.19 in 10.0 mi SSE 4.6 mph - N/A   Scattered Clouds
1:55 AM 39.2 °F 35.9 °F 28.4 °F 65% 30.19 in 10.0 mi SSE 4.6 mph - N/A   Mostly Cloudy
2:15 AM 41.0 °F 37.1 °F 28.4 °F 61% 30.18 in 10.0 mi SSE 5.8 mph - N/A   Overcast
2:35 AM 41.0 °F 39.0 °F 28.4 °F 61% 30.19 in 10.0 mi SSE 3.5 mph - N/A   Overcast
2:55 AM 39.2 °F - 28.4 °F 65% 30.19 in 10.0 mi Calm Calm - N/A   Overcast
3:15 AM 39.2 °F - 28.4 °F 65% 30.18 in 10.0 mi Calm Calm - N/A   Overcast
3:55 AM 39.2 °F 37.0 °F 28.4 °F 65% 30.18 in 10.0 mi NW 3.5 mph - N/A   Overcast
4:15 AM 39.2 °F 35.9 °F 28.4 °F 65% 30.17 in 10.0 mi WNW 4.6 mph - N/A   Overcast
4:35 AM 39.2 °F 35.0 °F 28.4 °F 65% 30.17 in 10.0 mi WNW 5.8 mph - N/A   Overcast
4:55 AM 41.0 °F 38.0 °F 28.4 °F 61% 30.17 in 10.0 mi West 4.6 mph - N/A   Overcast
5:15 AM 41.0 °F - 28.4 °F 61% 30.18 in 10.0 mi Calm Calm - N/A   Overcast
5:35 AM 39.2 °F 37.0 °F 26.6 °F 61% 30.18 in 10.0 mi NW 3.5 mph - N/A   Overcast
5:55 AM 39.2 °F - 26.6 °F 61% 30.18 in 10.0 mi Calm Calm - N/A   Overcast
6:15 AM 39.2 °F 35.9 °F 28.4 °F 65% 30.18 in 10.0 mi South 4.6 mph - N/A   Overcast
6:35 AM 39.2 °F 35.0 °F 30.2 °F 70% 30.18 in 10.0 mi South 5.8 mph - N/A   Mostly Cloudy
6:50 AM 37.4 °F 32.8 °F 35.6 °F 93% 30.18 in 15.0 mi Variable 5.8 mph - N/A   Mostly Cloudy
10:50 AM 46.4 °F 43.5 °F 30.2 °F 53% 30.21 in 15.0 mi Variable 5.8 mph - N/A   Partly Cloudy
11:49 AM 46.4 °F 43.5 °F 32.0 °F 57% 30.20 in 15.0 mi Variable 5.8 mph - N/A   Partly Cloudy
12:49 PM 50.0 °F - 33.8 °F 54% 30.18 in 15.0 mi Variable 5.8 mph - N/A   Partly Cloudy
1:54 PM 51.8 °F - 32.0 °F 47% 30.16 in 15.0 mi Variable 5.8 mph - N/A   Partly Cloudy
2:52 PM 53.6 °F - 32.0 °F 44% 30.14 in 15.0 mi Variable 5.8 mph - N/A   Partly Cloudy
3:47 PM 55.4 °F - 33.8 °F 44% 30.12 in 15.0 mi Variable 5.8 mph - N/A   Mostly Cloudy
5:48 PM 57.2 °F - 26.6 °F 31% 30.10 in 15.0 mi Variable 4.6 mph - N/A   Mostly Cloudy
6:47 PM 57.2 °F - 26.6 °F 31% 30.09 in 15.0 mi Variable 4.6 mph - N/A   Mostly Cloudy
7:47 PM 53.6 °F - 26.6 °F 35% 30.09 in 15.0 mi Variable 3.5 mph - N/A   Scattered Clouds
8:49 PM 48.2 °F - 33.8 °F 58% 30.09 in 15.0 mi Calm Calm - N/A   Partly Cloudy
8:55 PM 48.2 °F - 33.8 °F 58% 30.09 in 10.0 mi Calm Calm - N/A   Clear
9:15 PM 44.6 °F 40.7 °F 33.8 °F 66% 30.09 in 10.0 mi SSE 6.9 mph - N/A   Clear
9:35 PM 46.4 °F 42.9 °F 35.6 °F 66% 30.09 in 10.0 mi SSE 6.9 mph - N/A   Clear
9:55 PM 44.6 °F - 33.8 °F 66% 30.09 in 10.0 mi Calm Calm - N/A   Clear
10:15 PM 44.6 °F 43.1 °F 33.8 °F 66% 30.09 in 10.0 mi SSE 3.5 mph - N/A   Clear
10:35 PM 42.8 °F - 33.8 °F 70% 30.09 in 10.0 mi Calm Calm - N/A   Clear
10:55 PM 41.0 °F 35.8 °F 32.0 °F 70% 30.09 in 10.0 mi SE 8.1 mph - N/A   Clear
11:35 PM 39.2 °F 37.0 °F 32.0 °F 75% 30.08 in 10.0 mi South 3.5 mph - N/A   Clear